Location: Valdosta
(30.8330°N, 83.2790°W)
Time: 15:50:24
(UTC-04:00)

Daily predictions for brighter satellites

Satellite Brightness Start Highest point End
(mag) Time Altitude Azimuth Time Altitude Azimuth Time Altitude Azimuth
Cosmos 2061 Rocket 4.2 20:45:36 10° S 20:52:00 86° W 20:58:22 10° N
Cosmos 1763 Rocket 4.4 20:50:48 10° SSE 20:55:15 28° E 20:59:41 10° NE
Cosmos 304 Rocket 3.8 20:50:30 10° SSW 20:55:18 88° ESE 21:00:09 10° NNE
Cosmos 2360 4.4 20:52:28 10° NNW 20:58:07 62° ENE 21:03:45 10° SSE
Okean 3 3.6 20:58:15 10° S 21:02:32 83° W 21:06:49 10° N
Cosmos 1697 Rocket 3.2 20:57:29 10° NNW 21:03:03 63° WSW 21:08:37 10° S
Cosmos 1725 Rocket 4.0 20:57:45 10° S 21:03:52 71° E 21:10:03 10° N
deb Kosmos-1763 4.2 21:01:51 10° S 21:05:27 52° ESE 21:09:03 10° NNE
Cosmos 1536 4.2 21:02:21 10° NNW 21:06:12 42° W 21:10:03 10° SSW
Cosmos 1378 Rocket 3.5 21:02:14 10° S 21:06:30 65° E 21:10:46 10° NNE
Cosmos 1500 3.2 21:03:00 10° N 21:06:53 77° E 21:10:43 10° S
Cosmos 1674 Rocket 4.2 21:05:00 10° SSW 21:09:23 62° W 21:13:49 10° N
BREEZE-M DEB (TANK) 3.6 21:07:47 10° NNW 21:09:38 15° NNE 21:11:02 10° ENE
BREEZE-M DEB (TANK) 4.5 21:09:26 10° N 21:10:58 14° NE 21:13:04 10° E
NOSS 3-2 (A) 4.4 21:05:57 10° SW 21:11:32 51° WNW 21:17:39 10° NNE
Delta 7925 Rocket 3.5 21:06:57 10° WSW 21:11:44 49° S 21:15:49 12° ESE
Cosmos 1975 Rocket 3.8 21:07:56 10° SSE 21:11:45 31° E 21:15:33 10° NNE
Atlas Centaur 2 1.2 21:08:40 10° W 21:12:54 72° S 21:16:08 13° ESE
ERS-2 2.8 21:09:41 10° SE 21:13:06 38° ENE 21:16:33 10° N
Tsikada Rocket 4.3 21:07:06 10° N 21:13:21 53° E 21:19:34 10° SSE
SJ-6B 3.0 21:10:52 10° S 21:14:33 66° W 21:18:15 10° NNW
Chunghua 1 4.4 21:10:56 10° WSW 21:14:36 67° SSE 21:18:19 10° ENE
USA 186 1.7 21:12:29 10° SSE 21:15:37 68° ENE 21:18:56 10° N
USA 234 3.2 21:10:44 10° NE 21:17:17 70° SE 21:23:49 10° SSW
Cosmos 1980 Rocket 2.3 21:11:36 10° NNW 21:17:18 88° WSW 21:22:58 10° SSE
NOSS 3-2 (C) 3.8 21:12:28 10° SW 21:18:12 67° WNW 21:24:27 10° NNE
IUS-9 SRM-1 3.5 21:15:00 10° WSW 21:18:16 57° S 21:31:36 10° E
Okean 1 Rocket 3.1 21:15:12 10° N 21:19:28 57° E 21:23:42 10° SSE
Cosmos 2084 4.0 21:16:41 10° SW 21:21:04 62° WNW 21:25:13 10° NNE
Cosmos 1975 3.4 21:17:19 10° NNE 21:21:05 37° E 21:24:04 14° SE
Cosmos 1666 3.7 21:17:56 10° NNE 21:21:22 30° E 21:23:46 16° SE
Tiangong 2 4.2 21:20:45 10° NW 21:22:09 12° NNW 21:23:33 10° NNE
Cosmos 292 Rocket 4.4 21:21:59 10° SSE 21:26:13 32° E 21:30:26 10° NE
ATLAS CENTAUR R/B 3.8 21:22:39 10° SW 21:27:30 74° NW 21:42:03 10° NE
GPS 2-04 Rocket1 3.1 21:24:25 10° WNW 21:28:29 55° SSW 21:31:18 19° SE
CENTAUR R/B 2.3 21:28:45 10° SSW 21:34:22 67° ESE 21:40:44 10° NE
Iridium 2 4.3 21:33:21 20° SE 21:35:28 35° E 21:38:59 10° NNE
Cosmos 1743 3.1 21:33:03 10° N 21:36:43 43° E 21:38:42 23° SE
ATLAS CENTAUR R/B 2.9 21:34:25 10° NW 21:38:47 40° WSW 21:43:18 10° S
Cosmos 2233 Rocket 4.0 21:35:15 10° S 21:41:22 89° ESE 21:47:35 10° N
Cosmos 1814 Rocket 3.9 21:36:25 10° S 21:41:37 78° ESE 21:46:55 10° NNE
Cosmos 1898 Rocket 3.7 21:38:41 10° N 21:43:55 57° ENE 21:47:11 23° SE
Meteor 1-12 Rocket 4.4 21:39:01 10° N 21:44:58 66° E 21:49:38 17° SSE
Cosmos 1833 4.3 21:43:08 10° S 21:48:43 56° ESE 21:54:18 10° NNE
Resurs 01 Rocket 1.7 21:44:55 13° S 21:48:46 75° WSW 21:53:10 10° NNW
H-2A R/B 3.2 21:48:25 20° E 21:49:59 24° ENE 21:53:58 10° NNE
Meteor 2-4 Rocket 3.7 21:46:17 12° S 21:51:09 58° E 21:56:34 10° NNE
Cosmos 990 Rocket 4.2 21:51:27 10° N 21:56:33 52° ENE 21:58:52 30° SE
ARGOS 3.7 21:56:26 27° ESE 21:58:41 40° ENE 22:03:42 10° N
Lacrosse 5 rocket 3.8 21:59:26 10° NNE 22:00:40 11° NE 22:01:55 10° NE
Cosmos 1939 Rocket 4.5 21:57:25 10° SSW 22:01:07 33° W 22:04:53 10° NNW
Aureole 2 Rocket 4.2 21:59:38 10° NNE 22:00:42 15° NE 22:00:42 15° NE
NOAA 11 4.2 21:58:22 18° S 22:02:34 79° WSW 22:08:03 10° NNW
Skynet4D Del rocket 4.2 22:01:54 10° SW 22:08:00 43° SSE 22:09:45 34° SE
Cosmos 2322 Rocket 2.1 22:03:56 10° NNW 22:09:33 76° ENE 22:12:02 34° SSE
CZ-4B DEB 4.4 22:12:47 62° S 22:13:18 88° WSW 22:16:48 10° NNW
Cosmos 1242 Rocket 3.1 22:10:21 10° NNW 22:13:54 55° W 22:15:05 35° SSW
SL-16 R/B 2.2 22:14:04 10° NNW 22:19:45 81° WSW 22:22:11 36° S
Cosmos 1340 Rocket 2.9 22:18:27 35° SSW 22:20:04 77° W 22:24:08 10° N
Cosmos 2150 Rocket 4.0 22:19:20 10° N 22:24:39 67° ENE 22:25:55 49° SE
MetOp-B 4.2 22:23:56 45° SE 22:25:21 62° ENE 22:30:38 10° N
Cosmos 540 Rocket 3.3 22:22:41 25° SSW 22:25:46 85° ESE 22:30:58 10° NNE
Cosmos 1513 Rocket 4.3 22:23:27 31° S 22:26:32 76° E 22:32:41 10° N
Mugunghwa Rocket 4.3 22:19:51 10° WSW 22:26:57 65° S 22:30:25 35° ESE
GPS 2-05 Rocket1 3.2 22:23:44 10° W 22:26:55 57° NNW 22:26:55 57° NNW
FUSE 4.4 22:22:06 10° WSW 22:27:03 40° S 22:27:15 40° S
Cosmos 2034 Rocket 3.9 22:29:18 41° SSE 22:31:25 65° E 22:37:29 10° NNE
Cosmos 2219 4.2 22:34:42 30° ENE 22:34:42 30° ENE 22:38:29 10° NE
Cosmos 1464 Rocket 4.0 22:30:00 23° S 22:34:11 83° W 22:40:35 10° N
SPOT 5 3.8 22:37:55 30° NE 22:37:55 30° NE 22:41:18 10° N
USA 245 4.2 22:38:32 36° NNE 22:38:32 36° NNE 22:41:27 10° N
Terra 3.8 22:38:20 16° ENE 22:38:20 16° ENE 22:40:33 10° NNE
Cosmos 1937 Rocket 3.9 22:35:01 10° NNW 22:40:02 55° WSW 22:41:33 40° SSW
Cosmos 1455 Rocket 3.2 22:39:36 10° NNW 22:43:57 66° W 22:44:20 62° SW
Cosmos 2298 Rocket 4.2 22:40:37 10° NNW 22:45:51 65° WSW 22:46:59 51° SSW
Helios 1A 3.9 22:51:28 38° NNE 22:51:28 38° NNE 22:54:24 10° N
Okean 2 4.2 22:52:12 44° NNE 22:52:12 44° NNE 22:55:10 10° N
DELTA 2 R/B (1) 3.4 22:46:11 10° WSW 22:51:44 88° SSE 22:53:20 48° ENE
Meteor 1-15 Rocket 4.1 22:46:32 10° N 22:52:13 70° E 22:52:34 68° ESE
Cosmos 2360 Rocket 2.0 22:52:58 10° NNW 22:58:39 84° ENE 22:58:58 79° SE
Cosmos 372 Rocket 4.4 22:54:05 10° N 22:58:30 48° NE 22:58:30 48° NE
BREEZE M DEB (TANK) 3.1 22:52:56 10° NW 22:58:38 50° N 22:58:38 50° N
Atlas Centaur 2 3.7 22:58:09 10° W 22:58:46 13° WSW 22:58:46 13° WSW
Cosmos 2219 Rocket 3.7 22:57:35 10° N 23:01:38 22° ENE 23:01:38 22° ENE
Cosmos 1356 Rocket 4.5 23:05:19 42° N 23:05:19 42° N 23:08:12 10° N
ERS-1 Rocket 3.1 23:07:43 63° WSW 23:07:45 63° WSW 23:12:44 10° NNW
CZ-2C R/B 4.3 23:16:09 31° NE 23:16:09 31° NE 23:20:06 10° N
Helios 1B rocket 3.8 23:16:42 10° N 23:19:16 36° N 23:19:16 36° N
SJ 16-02 2.4 23:17:23 10° NNW 23:20:26 43° NNW 23:20:26 43° NNW
SPOT 1/Viking Rocket 3.9 23:26:19 63° NW 23:26:19 63° NW 23:30:46 10° NNW
Cosmos 2333 Rocket 3.4 23:23:23 10° N 23:27:41 32° NE 23:27:41 32° NE
H-2A R/B 3.4 23:29:03 28° W 23:29:14 28° W 23:33:30 10° NW
COSMOS 2428 3.2 23:25:59 10° NNW 23:30:38 53° NNE 23:30:38 53° NNE
CZ-4C R/B 3.2 23:27:40 10° NNW 23:34:59 54° ENE 23:35:47 53° ENE
Cosmos 1125 Rocket 4.2 23:34:03 10° NNW 23:38:03 51° NW 23:38:03 51° NW
Lacrosse 5 rocket 3.5 23:36:17 10° NW 23:38:05 24° NW 23:38:05 24° NW
Cosmos 2297 Rocket 3.8 23:44:24 24° NE 23:44:24 24° NE 23:46:42 10° NNE
Cosmos 2227 Rocket 3.6 23:47:44 29° NE 23:47:44 29° NE 23:50:28 10° NNE
Cosmos 1092 Rocket 4.1 23:40:05 10° N 23:45:54 73° NW 23:45:54 73° NW
